Starlink 5274

operational
NORAD ID: 55395 Int'l Des: 2023-014 Owner: SPXS Country: US Constellation: starlink
LEOCIRCULAR

关于 Starlink 5274

正在加载描述...

实时位置

正在加载3D地球...

即将过境

高度历史

Altitude vs Time

uPlot chart will show altitude changes over time

两行轨道根数

1 55395U 23014E 25354.13965715 -.00000636 00000-0 -45502-4 0 9990
2 55395 69.9988 264.8557 0002832 270.2782 89.8053 14.98332696160144
Epoch: Dec 20, 2025 • Age: 6 hours

当前状态

高度 574.1 km
速度 7.57 km/s
星下点 5.17°N, 30.05°E
发射日期 Jan 31, 2023
运行时间 2.8 years
类型 internet

技术详情

分类 Payload
质量 305.00 kg
干质量 290.00 kg
总质量 305.00 kg
长度 0.20 m
直径 2.80 m
跨度 9.00 m
形状 Box + pan
制造商 SPXS
平台类型 Starlink
阶段状态 In Orbit
所有者/国家 SPXS/US

大型星座

Loading constellations...